Location: Unspecified
(44.0704°N, 88.6889°W)
Time: 12:28:33
(UTC+02:00)

Altair - Pass Details

Date: 22 June 2019
Orbit: 1501 x 1683 km, 47.2° (Epoch: 16 October)

Event Time Altitude Azimuth Distance (km) Brightness Sun altitude
Rises 06:52:32 0° 276° (W) 4,773 10.4 -20.9°
Reaches altitude 10° 06:55:36 10° 278° (W) 3,812 9.8 -21.1°
Maximum altitude 07:05:23 75° 4° (N) 1,694 7.8 -21.5°
Drops below altitude 10° 07:15:31 10° 90° (E) 3,932 9.5 -21.8°
Sets 07:18:44 0° 92° (E) 4,928 10.0 -21.9°
